Terminal Aerodrome Forecast
Issued by NWS Cleveland, OH

Home | Current Version | Previous Version | Graphics & Text | Print | Product List | Glossary On
Versions: 1 2 3 4 5 6 7 8 9 10 11 12 13 14 15 16 17 18 19 20 21 22 23 24 25
000
FTUS41 KCLE 212300 AAA
TAFTOL
TAF AMD
KTOL 212320Z 2123/2218 35010KT P6SM SCT015 OVC025
     FM220300 36010KT P6SM OVC015
     FM220900 36010KT P6SM OVC025
     FM221500 36008KT P6SM BKN035=

USA.gov is the U.S. government's official web portal to all federal, state and local government web resources and services.